Hourly Data Report for December 01, 2003

TORONTO CITY
ONTARIO

43°40'00.000" N
79°24'00.000" W
112.50 m
6158355
71508
XTO

Download Data

Hourly Data (December 2003)
Hourly Data Report for December 1, 2003
TIME
LST
Temp Definition
°C
Dew Point Definition
°C
Rel Hum Definition
%
Precip. Amount Definition
mm

Wind Dir Definition
10's deg

Wind Spd Definition
km/h
Visibility Definition
km
Stn Press Definition
kPa
Hmdx Definition


Wind Chill Definition


Weather Definition


00:00 7.6 1.9 67   LegendMM LegendMM LegendMM 98.81     LegendNANA
01:00 7.4 2.9 73   LegendMM LegendMM LegendMM 98.92     LegendNANA
02:00 4.9 -0.4 69   LegendMM LegendMM LegendMM 99.08     LegendNANA
03:00 4.2 -1.7 65   LegendMM LegendMM LegendMM 99.22     LegendNANA
04:00 3.7 -2.1 66   LegendMM LegendMM LegendMM 99.28     LegendNANA
05:00 3.6 -1.8 68   LegendMM LegendMM LegendMM 99.41     LegendNANA
06:00 2.7 -0.7 78   LegendMM LegendMM LegendMM 99.52     LegendNANA
07:00 1.8 -1.0 82   LegendMM LegendMM LegendMM 99.66     LegendNANA
08:00 1.8 -5.4 59   LegendMM LegendMM LegendMM 99.78     LegendNANA
09:00 1.9 -4.3 63   LegendMM LegendMM LegendMM 99.88     LegendNANA
10:00 1.8 -3.6 67   LegendMM LegendMM LegendMM 99.99     LegendNANA
11:00 0.2 -2.0 85   LegendMM LegendMM LegendMM 100.07     LegendNANA
12:00 2.3 -3.5 65   LegendMM LegendMM LegendMM 100.01     LegendNANA
13:00 2.8 -5.7 54   LegendMM LegendMM LegendMM 100.01     LegendNANA
14:00 2.2 -4.0 64   LegendMM LegendMM LegendMM 100.04     LegendNANA
15:00 1.9 -5.3 59   LegendMM LegendMM LegendMM 100.12     LegendNANA
16:00 1.5 -5.3 61   LegendMM LegendMM LegendMM 100.20     LegendNANA
17:00 0.7 -4.4 69   LegendMM LegendMM LegendMM 100.25     LegendNANA
18:00 0.7 -4.0 71   LegendMM LegendMM LegendMM 100.28     LegendNANA
19:00 0.5 -4.2 71   LegendMM LegendMM LegendMM 100.31     LegendNANA
20:00 -0.5 -4.6 74   LegendMM LegendMM LegendMM 100.34     LegendNANA
21:00 -0.7 -5.6 69   LegendMM LegendMM LegendMM 100.38     LegendNANA
22:00 -0.8 -5.3 72   LegendMM LegendMM LegendMM 100.43     LegendNANA
23:00 -1.4 -5.9 71   LegendMM LegendMM LegendMM 100.48     LegendNANA

Notes on Data Quality.

Legend

  • E = Estimated
  • M = Missing
  • NA = Not Available*
  • [empty] = Indicates an unobserved value
Date modified: